Location: Caltech
(34.1382°N, 118.1253°W)
Time: 03:17:00
(UTC-07:00)

Iridium 62 - Visible Passes

Search period start: 01 October 2014 00:00
Search period end: 11 October 2014 00:00
Orbit: 776 x 779 km, 86.4° (Epoch: 30 September)

Date Brightness Start Highest point End Pass type
(mag) Time Alt. Az. Time Alt. Az. Time Alt. Az.
01 Oct 9.2 05:05:35 10° NE 05:07:37 12° ENE 05:09:39 10° E visible
01 Oct 8.3 19:37:17 10° SW 19:41:34 26° W 19:45:52 10° NNW visible
02 Oct 6.3 06:10:02 10° N 06:15:14 69° E 06:20:24 10° S visible
02 Oct 7.0 19:02:53 10° SSW 19:07:54 50° W 19:12:57 10° N visible
03 Oct 7.6 05:36:53 10° NNE 05:41:38 35° E 05:46:21 10° SSE visible
04 Oct 8.7 05:04:20 10° NE 05:07:54 19° E 05:11:27 10° ESE visible
04 Oct 8.9 19:38:24 10° WSW 19:41:48 18° WNW 19:45:13 10° NW visible
05 Oct 5.8 06:10:06 10° N 06:15:19 80° W 06:20:30 10° S visible
05 Oct 7.9 19:03:24 10° SSW 19:08:03 33° W 19:12:44 10° NNW visible
06 Oct 6.7 05:36:41 10° N 05:41:47 53° E 05:46:50 10° SSE visible
07 Oct 8.0 05:03:43 10° NNE 05:08:07 27° E 05:12:30 10° SE visible
07 Oct 9.2 19:40:26 10° W 19:42:05 11° WNW 19:43:44 10° WNW visible
08 Oct 8.8 04:31:38 10° NE 04:34:20 14° ENE 04:37:03 10° ESE visible
08 Oct 6.0 06:10:18 10° NNW 06:15:21 53° W 06:20:23 10° SSW visible
08 Oct 8.6 19:04:14 10° SW 19:08:15 23° W 19:12:18 10° NNW visible
09 Oct 5.9 05:36:39 10° N 05:41:53 80° E 05:47:05 10° S visible
10 Oct 7.2 05:03:24 10° NNE 05:08:18 40° E 05:13:10 10° SSE visible
